Погода в Шебалине

Россия / Волгоградская область     48°16′32″N   43°21′11″E
темп.,
°C
ветер,
м/с
пор.,
м/с
влажн.,
%
обл.,
%
осадки,
мм/ч
давл.,
гПа
погр.,
м
18 января, вт
вт1800:00+1ююз91798100 0.3 1009805
03:00−1ююз122190100 1.2 1008763
06:00−1ююз112195100 1.1 1007893
09:00−1ю102177100 1.3 1008745
12:00+1ю91875100 0.0 1007684
15:00+1ю71480100 0.1 1007575
18:00+1ю81783100 0.3 1008791
21:000ююз71294100 0.3 1010510
19 января, ср
ср1900:000юз6998100 1.3 1012519
03:00−2юз3497100 1.5 101466
06:00−3з3498100 0.0 1015122
09:00−4з2396100 0.1 1018113
12:00−4зюз3489100 0.0 1019213
15:00−4зсз2488100 0.0 1020204
18:00−6ссз2291100 0.0 102026
21:00−7св2294100 0.0 102115
20 января, чт
чт2000:00
03:00−11св119721 0.0 102210
06:00−12св229751 0.0 102210
09:00
12:00−6ссв11845 0.0 1023100
15:00−6св11896 0.0 102334
18:00−10ююв01935 0.0 102410
21:00−12юв119611 0.0 102410
21 января, пт
пт2100:00−12ююв22967 0.0 102416
03:00−11ююв229647 0.0 102426
06:00−10ююв35957 0.0 102363
09:00−7ююв51088100 0.0 1023181
12:00−3ююв61282100 0.0 1022335
15:00−2ююв61281100 0.0 1021388
18:00−3ююв71480100 0.0 1021317
21:00−4ююв71578100 0.0 1020295
22 января, сб
сб2200:00−4ююв7157883 0.0 1019291
03:00−4ююв5128297 0.0 1019281
06:00−4ююв51186100 0.0 1019241
09:00−3ююв61385100 0.3 1019357
12:00−1ююв71489100 0.3 1019438
15:00−1юв81588100 0.3 1018511
18:00−1ююв91591100 0.1 1019468
21:00−1юв61496100 1.1 1019495